Regional Weather Roundup
Issued by NWS

Home | Current Version | Previous Version | Graphics & Text | Print | Product List | Glossary On
Versions: 1 2 3 4 5 6 7 8 9 10 11 12 13 14 15 16 17 18 19 20 21 22 23 24 25 26 27 28 29 30 31 32 33 34 35 36 37 38 39 40 41 42 43 44 45 46 47 48 49 50
000
ASUS43 KMPX 161901
RWRMN
WEATHER ROUNDUP FOR MINNESOTA
NATIONAL WEATHER SERVICE TWIN CITIES/CHANHASSEN MN
100 PM CST SAT DEC 16 2017


NOTE: "FAIR" INDICATES FEW OR NO CLOUDS BELOW 12,000 FEET WITH NO
SIGNIFICANT WEATHER AND/OR OBSTRUCTIONS TO VISIBILITY. N/A MEANS
CURRENT SKY AND/OR WEATHER CONDITIONS ARE NOT AVAILABLE.

MNZ060>063-068>070-162000-
   Twin Cities Metro

CITY           SKY/WX    TMP DP  RH WIND       PRES   REMARKS
TWIN CITIES    CLOUDY    28  25  88 E5        29.90R WCI  23
ST PAUL        CLOUDY    28  23  81 E5        29.91S WCI  23
CRYSTAL        CLOUDY    28  21  75 VRB3      29.89R
BLAINE         PTSUNNY   30  25  80 E7        29.89S WCI  23
LAKEVILLE      CLOUDY    27  27 100 NE7       29.88R FOG     WCI  19
EDEN PRAIRIE   CLOUDY    29  24  82 E7        29.89R WCI  22
SOUTH ST PAUL  PTSUNNY   29  24  83 E3        29.90R
LAKE ELMO      FAIR      30  23  74 E6        29.90S WCI  24
$$
MNZ001>005-007-008-013>017-022>024-027-028-162000-
   Northwest Minnesota

CITY           SKY/WX    TMP DP  RH WIND       PRES   REMARKS
BEMIDJI        CLOUDY    20  16  84 SE8       29.87S WCI  11
HALLOCK        CLOUDY    19  18  93 S6        29.89S WCI  11
ROSEAU         CLOUDY    14  10  85 E7        29.89F WCI   4
WARROAD        LGT SNOW  10   7  85 E5        29.91R WCI   2
THIEF RVR FALL CLOUDY    23  19  86 S5        29.89R WCI  17
CROOKSTON      CLOUDY    27  23  86 W9        29.91R WCI  17
FOSSTON        CLOUDY    25  19  80 S9        29.88S WCI  15
DETROIT LAKES  CLOUDY    27  25  93 S5        29.89R FOG     WCI  21
MOORHEAD       CLOUDY    28  25  86 CALM      29.91R
PARK RAPIDS    CLOUDY    21  18  88 SE5       29.87F WCI  15
MAHNOMEN       CLOUDY    26  23  89 S7        29.87S WCI  18
$$
MNZ006-009>011-018-025>026-162000-
   North Central Minnesota

CITY           SKY/WX    TMP DP  RH WIND       PRES   REMARKS
BAUDETTE       CLOUDY     8   5  87 SE9       29.90S FOG     WCI  -5
FLAG ISLAND    LGT SNOW   7   3  85 E6        29.91S WCI  -3
INTL FALLS     LGT SNOW   6   1  80 SE12      29.95R WCI  -9
WASKISH        CLOUDY    16  12  86 E7        29.89F WCI   6
BIG FORK       CLOUDY    16  12  86 CALM        N/A
LONGVILLE      CLOUDY    21  12  68 CALM      29.91R
GRAND RAPIDS   CLOUDY    19  16  88 SE5       29.93R WCI  12
CRANE LAKE     LGT SNOW   9   5  85 E3        29.99S
ORR            FLURRIES  12   7  79 CALM      29.91R
COOK           FLURRIES  10   7  85 E3        29.94R
WALKER         CLOUDY    20  14  77 E3        29.89S
$$
MNZ012-019>021-037-162000-
   Northeast Minnesota

CITY           SKY/WX    TMP DP  RH WIND       PRES   REMARKS
DULUTH         CLOUDY    19  14  81 E12       29.93R WCI   7
ELY            LGT SNOW  10   7  85 N3        29.94S
HIBBING        CLOUDY    20  16  84 SE10      29.92R WCI   9
EVELETH        MIX PCPN  20  13  73 SE7       29.93R WCI  11
DULUTH HARBOR  CLOUDY    25  16  68 E14       30.00R WCI  13
TWO HARBORS    CLOUDY    27  18  69 E10       29.95R WCI  17
GRAND MARAIS     N/A     18  11  74 NE10      30.04F WCI   6
G MARAIS ARPRT FLURRIES   9   3  78 NE7       29.95S WCI  -3
$$
MNZ029>031-032-039>041-046>048-054>057-064-162000-
   West Central Minnesota

CITY           SKY/WX    TMP DP  RH WIND       PRES   REMARKS
FERGUS FALLS   CLOUDY    27  23  86 CALM      29.93R
WHEATON        CLOUDY    30  28  93 NW6       29.92S WCI  24
MORRIS         PTSUNNY   30  27  86 E3        29.88F
ALEXANDRIA     CLOUDY    27  23  85 NE3       29.89R
ELBOW LAKE     CLOUDY    28  25  88 CALM      29.90R FOG
WADENA         CLOUDY    23  19  86 CALM      29.88S
GLENWOOD       MOSUNNY   27  25  93 N3        29.88F FOG
APPLETON       CLOUDY    36  28  75 N3        29.90R
BENSON         CLOUDY    30  27  86 N6        29.91S WCI  24
ORTONVILLE     CLOUDY    34  30  86 N6        29.90R WCI  29
MADISON        CLOUDY    39  32  75 NW12      29.91R
WILLMAR        FAIR      34  28  80 N5        29.89S WCI  30
$$
MNZ033>034-036-042>043-049>051-058-059-162000-
   Central Minnesota

CITY           SKY/WX    TMP DP  RH WIND       PRES   REMARKS
ST CLOUD       CLOUDY    25  20  81 N3        29.91R
SAUK CENTRE    CLOUDY    25  22  90 CALM      29.89S FOG
PAYNESVILLE    CLOUDY    27  26  94 CALM      29.89S
AITKIN         CLOUDY    21  12  68 E3        29.89S
PINE RIVER     CLOUDY    19  12  73 CALM      29.93R
BRAINERD       CLOUDY    24  17  74 VRB3      29.90S
STAPLES        CLOUDY    23  18  80 CALM      29.89S
LITTLE FALLS   CLOUDY    27  19  74 CALM      29.90F
LITCHFIELD     MOSUNNY   30  27  86 N7        29.89S WCI  23
BUFFALO        CLOUDY    28  23  84 N3        29.90S
MAPLE LAKE     CLOUDY    28  25  87 NE3       29.90F
HUTCHINSON     MOSUNNY   31  27  84 N6        29.89R WCI  25
$$
MNZ037-044-045-052-053-162000-
   East Central Minnesota

CITY           SKY/WX    TMP DP  RH WIND       PRES   REMARKS
PRINCETON      CLOUDY    27  21  80 CALM      29.91R
MORA           CLOUDY    25  18  74 N3        29.94R
CAMBRIDGE      CLOUDY    27  18  69 NE3       29.92R
RUSH CITY      PTSUNNY   28  19  70 NE3       29.92R
MOOSE LAKE     CLOUDY    23  12  63 NE3       29.92R
HINCKLEY       CLOUDY    23  18  80 E5        29.93R WCI  17
CLOQUET        CLOUDY    19  10  68 E9        29.93R WCI   9
MCGREGOR       CLOUDY    23  12  63 E8        29.92S WCI  14
$$
MNZ071>073-080-081-089-090-097-098-162000-
   Southwest Minnesota

CITY           SKY/WX    TMP DP  RH WIND       PRES   REMARKS
MONTEVIDEO     CLOUDY    39  32  75 N6        29.90R
GRANITE FALLS  MOSUNNY   38  31  76 NW8       29.90R
CANBY          MOSUNNY   41  32  70 NW9       29.90R
MARSHALL       MOSUNNY   40  31  70 N16       29.87R
REDWOOD FALLS  CLOUDY    38  30  73 N8        29.88R
OLIVIA         MOSUNNY   36  30  80 NW6       29.88R
PIPESTONE      CLOUDY    43  30  61 N8        29.84S
WINDOM           N/A     41  25  52 NW10G16   29.85S
WORTHINGTON    CLOUDY    42  30  62 N13       29.85R
JACKSON        MOSUNNY   43  30  61 N12G17    29.84R
SLAYTON        PTSUNNY   41  32  69 N16       29.85S
$$
MNZ065>067-074>077-082>085-091>093-162000-
   South Central Minnesota

CITY           SKY/WX    TMP DP  RH WIND       PRES   REMARKS
MANKATO        SUNNY     34  28  79 NE6       29.87R WCI  29
NEW ULM        SUNNY     34  28  80 N3        29.87R
ST JAMES       CLOUDY    37  30  75 NW7       29.86S
FAIRMONT       SUNNY     42  30  62 N13       29.84S
GLENCOE        CLOUDY    32  31  94 N3        29.88R
FARIBAULT      SUNNY     34  28  80 N6        29.86R WCI  29
OWATONNA       SUNNY     37  28  70 NE5       29.86R
WASECA         SUNNY     36  30  80 NE5       29.86R
ALBERT LEA     SUNNY     39  28  65 CALM      29.83S
$$
MNZ078>079-086>088-094>096-162000-
   Southeast Minnesota

CITY           SKY/WX    TMP DP  RH WIND       PRES   REMARKS
ROCHESTER      SUNNY     36  28  73 VRB3      29.84R
RED WING       CLOUDY    28  21  74 E6        29.89S WCI  22
STANTON        CLOUDY    32  27  82 E7        29.86S WCI  25
DODGE CENTER   SUNNY     36  27  69 NE6       29.84R
WINONA           N/A     30  27  86 E6        29.91R WCI  24
AUSTIN         SUNNY     37  27  65 CALM      29.83S
PRESTON        CLOUDY    35  25  67 E3        29.84S
$$
ABBREVIATIONS USED IN REMARKS
   TC - TEMPERATURES IN CELSIUS
  WCI - WIND CHILL INDEX
   HX - HEAT INDEX
  VSB - VISIBILITY
$$




USA.gov is the U.S. government's official web portal to all federal, state and local government web resources and services.